Regional Weather Roundup
Issued by NWS Upton, NY

Current Version | Previous Version | Text Only | Print | Product List | Glossary On
Versions: 1 2 3 4 5 6 7 8 9 10 11 12 13 14 15 16 17 18 19 20 21 22 23 24 25 26 27 28 29 30 31 32 33 34 35 36 37 38 39 40 41 42 43 44 45 46 47 48 49 50
000 ASUS41 KOKX 280409 RWROKX REGIONAL WEATHER ROUNDUP NATIONAL WEATHER SERVICE NEW YORK NY 1200 AM EDT FRI APR 28 2017 NOTE: "FAIR" INDICATES FEW OR NO CLOUDS BELOW 12,000 FEET WITH NO SIGNIFICANT WEATHER AND/OR OBSTRUCTIONS TO VISIBILITY. NYZ071-072-176-178-NJZ106-104-280500- NEW YORK CITY METRO AREA CITY SKY/WX TMP DP RH WIND PRES REMARKS Central Park CLOUDY 57 56 96 CALM 29.91S FOG Wall St Helipt CLOUDY 56 54 93 NE5 29.90S Bronx Bot Gard N/A 57 55 94 E3 29.91R LaGuardia APRT CLOUDY 59 56 89 SE5 29.88F FOG Kennedy INTL FOG 56 56 100 E6 29.90F VSB 3/4 Breezy Point N/A 52 N/A N/A E6 N/A Newark/Liberty FOG 56 55 97 E5 29.88F VSB 1 Teterboro CLOUDY 59 57 93 SE3 29.88S FOG $$ NYZ177-179-078>081-280500- LONG ISLAND NEW YORK CITY SKY/WX TMP DP RH WIND PRES REMARKS Jones Beach N/A 52 N/A N/A E6 N/A Matinecock PT NOT AVBL Farmingdale CLOUDY 56 56 100 SE8 29.90F MacArthur/ISP FOG 55 55 100 SE7 29.91S VSB 3/4 Shirley FOG 54 54 100 VRB5 29.93S VSB 3/4 Mt Sinai Harb N/A 55 N/A N/A SE6 N/A Westhampton CLOUDY 54 53 97 SE5 29.94F FOG East Hampton CLOUDY 54 53 97 SE7 29.93F Montauk N/A 56 55 97 VRB6 29.95F $$ NYZ052-065-067-280500- HUDSON VALLEY CITY SKY/WX TMP DP RH WIND PRES REMARKS White Plains DRZL/FOG 58 57 97 E8 29.88F VSB 1/4 Larchmont Harb N/A 52 N/A N/A N7 N/A Croton O-T Hud N/A 57 N/A N/A MISG N/A Newburgh CLOUDY 59 59 100 SE5 29.90S FOG Montgomery CLOUDY 62 58 86 SE3 29.86S Poughkeepsie CLOUDY 60 57 89 SE3 29.87S Albany CLOUDY 64 56 75 S13G26 29.85S $$ NJZ001-105-106-008-010-013-015-019>022-104-280500- NEW JERSEY CITY SKY/WX TMP DP RH WIND PRES REMARKS Newark/Liberty FOG 56 55 97 E5 29.88F VSB 1 Teterboro CLOUDY 59 57 93 SE3 29.88S FOG Caldwell CLOUDY 58 57 97 E3 29.88F FOG Somerville CLOUDY 60 58 92 CALM 29.85F Linden CLOUDY 55 54 96 CALM 29.88F FOG Perth Amboy N/A 54 N/A N/A E6 N/A Sussex CLOUDY 57 57 100 CALM 29.87F FOG Andover N/A 60 58 92 VRB3 29.87S Trenton MOCLDY 60 59 96 E5 29.85F Millville CLOUDY 65 63 93 VRB6 29.85S Atlantic City CLOUDY 63 59 87 S9 29.86S Wrightstown CLOUDY 64 61 91 S7 29.83S Toms River MOCLDY 63 61 93 S8 29.87S Belmar CLOUDY 56 55 97 NE3 29.88S FOG $$ PAZ047>061-062-071-280500- EASTERN PENNSYLVANIA CITY SKY/WX TMP DP RH WIND PRES REMARKS Philadelphia CLOUDY 70 62 76 S6 29.83S Allentown MOCLDY 66 60 81 E7 29.84S Scranton CLOUDY 69 62 78 E3 29.80F $$ CTZ002-004>006-009-010-012-RIZ004-006-007-MAZ004-011-015-280500- SOUTHERN NEW ENGLAND IN CT CITY SKY/WX TMP DP RH WIND PRES REMARKS Bradley INTL DRIZZLE 58 57 97 S9 29.91F FOG Hartford CLOUDY 58 56 93 S3 29.92F Danbury CLOUDY 57 57 100 CALM 29.91F FOG Wtrbury/Oxford CLOUDY 57 54 88 SE5 29.92F VSB<1/4 Bridgeport FOG 54 52 93 E10 29.91F VSB 1/2 Meriden CLOUDY 59 57 93 S3 29.92S FOG New Haven CLOUDY 56 54 93 E9 29.91F FOG Chester CLOUDY 55 55 100 SE3 29.93F FOG Groton CLOUDY 54 52 93 E7 29.94F Wilimantic CLOUDY 58 57 97 S3 29.94F FOG IN RI CITY SKY/WX TMP DP RH WIND PRES REMARKS Providence CLOUDY 56 55 97 S6 29.96S Block Island FOG 54 54 100 S12 29.96S VSB 1 Westerly CLOUDY 55 54 96 SE5 29.96S FOG IN MA CITY SKY/WX TMP DP RH WIND PRES REMARKS Boston CLOUDY 58 55 90 S7 29.94S Worcester CLOUDY 56 53 90 S10 29.94R Westfield CLOUDY 60 57 89 S7 29.90F Provincetown CLOUDY 53 52 96 S8 29.96S Nantucket FOG 50 49 96 S5 29.97S VSB 3/4 $$ ANZ330-335-338-340-345-350-353-355-280500- COASTAL MARINE OBSERVATIONS STATION/POSITION TIME SKY/WX TEMP WIND PRES VSBY WAVE AIR SEA DIR/SP/G HT/PER (UTC) (F) (DEG/KT/KT) (MB) (MI) (FT/S) NY HARB ENTRANCE 0250 52 49 140/ 10/ 12 1012.0 4/ 9 20 S FIRE ISLAND 0350 53 48 170/ 12/ 14 1011.7 5/ 9 GREAT SOUTH BAY 0330 54 57 90/ 6/ 8 N/A 23 SSW MONTAUK P 0250 50 47 1014.2 6/10 15 E BARNEGAT LI 0330 51 N/A 4/11 HUDSON CANYON 0250 55 50 170/ 10/ 10 1013.2 5/ 9 KINGS POINT 0348 55 50 190/ 2/ 3 1012.0 EXECUTION ROCKS NOT AVBL CENTRAL LI SOUND 0300 47 90/ 8/ 10 N/A 1 EASTERN LI SOUND NOT AVBL ROBBINS REEF 0348 54 130/ 5/ 5 1012.3 $$ >>>>>>>>>>>>>>>>>>>>>>>>>>>> KEY <<<<<<<<<<<<<<<<<<<<<<<<<<< > < > SKY/WX - Sky Condition/Present Weather < > TMP - Temperature in Fahrenheit < > DP - Dew Point in Fahrenheit < > RH - Relative Humidity in Percent < > WIND - Direction (from) and Speed in MPH < > PRES - Mean Sea Level Pressure (inches of Hg) < > WCI - Wind Chill Index < > VSB - VISIBILITY IN MILES < > HX - HEAT INDEX < > TC - TEMPERATURE IN CELSIUS < > VRB - VARIABLE WIND DIRECTION < > < >>>>>>>>>>>>>>>>>>>>>>>>>>>> KEY <<<<<<<<<<<<<<<<<<<<<<<<<<<

USA.gov is the U.S. government's official web portal to all federal, state and local government web resources and services.